EW3156 Weather Reports


Display with metric or nautical units.
time (UTC)temp
F
wind
direction
speed
MPH
gust
MPH
rain 1hr
in
rain 24hr
in
rain mn
in
humidity
%
barometer
mb
20210923034616 58 211 0.0 1.0 0.00 0.00 0.00 89 1018.0
20210923033102 59 211 0.0 1.0 0.00 0.00 0.00 89 1017.8
20210923031644 59 211 0.0 2.0 0.00 0.00 0.00 89 1017.6
20210923030107 60 211 0.0 1.0 0.00 0.00 0.00 88 1017.6
20210923024600 60 211 0.0 1.0 0.00 0.00 0.00 87 1017.3
20210923023056 60 211 0.0 2.0 0.00 0.00 0.00 86 1017.2
20210923021636 61 209 0.0 2.0 0.00 0.00 0.00 88 1017.1
20210923020100 60 136 0.0 2.0 0.00 0.00 0.00 88 1016.9
20210923014624 60 184 0.0 2.0 0.00 0.00 0.00 88 1016.9
20210923013046 61 184 0.0 1.0 0.00 0.00 0.00 87 1016.6
20210923011558 61 184 0.0 2.0 0.00 0.00 0.00 86 1016.4
20210923010053 62 184 0.0 1.0 0.00 0.00 0.00 84 1016.2
20210923004528 63 184 0.0 1.0 0.00 0.00 0.00 81 1016.1
20210923003043 63 208 0.0 2.0 0.00 0.00 0.00 81 1016.0
20210923001522 64 208 0.0 2.0 0.00 0.00 0.00 78 1015.8
20210923000021 65 213 0.0 3.0 0.00 0.00 0.00 76 1015.8
20210922234537 66 129 1.0 5.0 0.00 0.00 0.00 73 1015.6
20210922233053 67 201 0.0 4.0 0.00 0.00 0.00 71 1015.6
20210922231524 67 213 0.0 3.0 0.00 0.00 0.00 71 1015.5
20210922230016 68 248 1.0 3.0 0.00 0.00 0.00 69 1015.6
20210922224526 68 105 0.0 6.0 0.00 0.00 0.00 69 1015.5
20210922223030 68 154 1.0 7.0 0.00 0.00 0.00 68 1015.6
20210922221511 69 13 2.0 11.0 0.00 0.00 0.00 64 1015.7
20210922220013 70 130 2.0 11.0 0.00 0.00 0.00 63 1015.5
20210922214509 70 128 1.0 8.0 0.00 0.00 0.00 65 1015.8
20210922213024 70 242 2.0 6.0 0.00 0.00 0.00 66 1015.7
20210922211509 70 234 2.0 7.0 0.00 0.00 0.00 67 1015.6
20210922210028 71 299 2.0 11.0 0.00 0.00 0.00 67 1015.5
20210922204507 72 140 0.0 4.0 0.00 0.00 0.00 67 1015.5
20210922203005 72 20 1.0 11.0 0.00 0.00 0.00 65 1015.5
20210922201510 71 44 1.0 8.0 0.00 0.00 0.00 65 1015.4
20210922200002 71 126 1.0 12.0 0.00 0.00 0.00 65 1015.6
20210922194503 71 196 4.0 15.0 0.00 0.00 0.00 66 1015.8
20210922193139 70 257 3.0 9.0 0.00 0.00 0.00 69 1015.8
20210922193002 70 178 1.0 9.0 0.00 0.00 0.00 69 1015.8
20210922191749 72 28 1.0 9.0 0.00 0.00 0.00 69 1016.0
20210922190112 71 71 1.0 5.0 0.00 0.00 0.00 70 1015.9
20210922184610 71 277 3.0 8.0 0.00 0.07 0.00 70 1016.0
20210922183144 70 237 0.0 6.0 0.00 0.07 0.00 72 1016.1
20210922181640 70 206 1.0 7.0 0.00 0.07 0.00 71 1016.1
20210922180122 70 317 1.0 9.0 0.00 0.07 0.00 74 1016.2
20210922174624 70 80 2.0 8.0 0.00 0.07 0.00 76 1016.3
20210922173109 69 240 2.0 9.0 0.00 0.07 0.00 76 1016.5
20210922171656 70 93 1.0 8.0 0.00 0.07 0.00 77 1016.3
20210922170211 69 219 1.0 6.0 0.00 0.07 0.00 75 1016.3
20210922164617 70 168 0.0 5.0 0.00 0.07 0.00 76 1016.3
20210922163306 69 272 3.0 6.0 0.00 0.07 0.00 77 1016.5
20210922161650 70 211 2.0 7.0 0.00 0.07 0.00 78 1016.5
20210922160112 69 344 1.0 7.0 0.00 0.07 0.00 78 1016.6
20210922154604 69 335 1.0 5.0 0.00 0.07 0.00 78 1016.4
20210922153056 68 55 1.0 8.0 0.00 0.07 0.00 84 1016.2
20210922151604 68 157 2.0 7.0 0.00 0.07 0.00 82 1016.4
20210922150055 68 9 1.0 7.0 0.00 0.07 0.00 85 1016.4
20210922144608 67 101 2.0 8.0 0.00 0.07 0.00 87 1015.8
20210922143046 67 109 2.0 8.0 0.00 0.07 0.00 88 1016.0
20210922141617 66 81 0.0 3.0 0.00 0.07 0.00 91 1015.5
20210922140045 66 101 1.0 5.0 0.00 0.07 0.00 93 1015.6
20210922134541 65 110 1.0 6.0 0.00 0.07 0.00 94 1015.7
20210922133139 65 260 2.0 8.0 0.00 0.07 0.00 96 1015.3
20210922131559 66 237 2.0 8.0 0.00 0.07 0.00 95 1015.9
20210922130046 67 110 2.0 7.0 0.00 0.07 0.00 95 1015.4
20210922124526 68 223 1.0 4.0 0.00 0.07 0.00 96 1015.1
20210922123014 69 311 2.0 14.0 0.00 0.07 0.00 94 1015.0
20210922121510 70 182 3.0 8.0 0.00 0.07 0.00 95 1014.6
20210922120021 71 129 2.0 8.0 0.00 0.07 0.00 96 1014.2
20210922114506 71 301 1.0 9.0 0.00 0.07 0.00 95 1014.0
20210922113007 71 302 2.0 9.0 0.00 0.07 0.00 96 1013.9
20210922111506 71 194 0.0 6.0 0.00 0.07 0.00 97 1013.7
20210922110010 71 171 0.0 8.0 0.00 0.07 0.00 98 1013.7
20210922104503 71 165 0.0 3.0 0.00 0.07 0.00 99 1013.5
20210922103008 71 184 0.0 2.0 0.00 0.07 0.00 99 1013.4
20210922101503 71 184 0.0 3.0 0.00 0.07 0.00 99 1013.3
20210922100000 71 87 0.0 6.0 0.00 0.07 0.00 99 1013.2
20210922094645 71 193 1.0 3.0 0.00 0.07 0.00 99 1013.2
20210922093122 71 176 0.0 5.0 0.00 0.07 0.00 99 1013.1
20210922091652 71 283 1.0 4.0 0.00 0.07 0.00 99 1013.1
20210922090145 71 168 0.0 4.0 0.00 0.07 0.00 99 1013.0
20210922084641 71 80 0.0 1.0 0.00 0.07 0.00 99 1012.9
20210922083216 71 80 0.0 2.0 0.00 0.07 0.00 99 1013.0
20210922081733 71 84 0.0 0.0 0.00 0.07 0.00 99 1013.1
20210922080222 71 83 0.0 1.0 0.00 0.07 0.00 99 1013.3
20210922074611 71 34 0.0 0.0 0.00 0.07 0.00 99 1013.4
20210922073209 72 34 0.0 0.0 0.00 0.07 0.00 99 1013.4
20210922071734 72 34 0.0 0.0 0.00 0.07 0.00 99 1013.4
20210922070107 72 34 0.0 0.0 0.00 0.07 0.00 99 1013.7
20210922064642 72 34 0.0 1.0 0.00 0.07 0.00 99 1014.0
20210922063057 72 34 0.0 0.0 0.00 0.07 0.00 99 1014.1
20210922061554 72 34 0.0 1.0 0.00 0.07 0.00 99 1014.3
20210922060117 72 34 0.0 1.0 0.00 0.07 0.00 99 1014.3
20210922054609 72 34 0.0 0.0 0.00 0.07 0.00 99 1014.5
20210922053027 72 34 0.0 0.0 0.00 0.07 0.00 99 1014.7
20210922051547 72 34 0.0 1.0 0.00 0.07 0.00 99 1014.6
20210922050036 72 34 0.0 1.0 0.00 0.07 0.00 99 1014.9
20210922043027 72 34 0.0 0.0 0.00 0.07 0.07 98 1014.8
20210922041522 72 34 0.0 0.0 0.00 0.07 0.07 98 1014.7
20210922040117 72 34 0.0 1.0 0.00 0.07 0.07 98 1014.7